Estación de Tamelaike INIA
Ultimos registro cada 15 minutos 75
| N° | Estación | Fecha / Hora | Temperatura | Humedad | Lluvia | Velocidad | Dirección | Radiación | Presion |
| 75 | Tamelaike INIA | 04-05-2026 18:30 | 4,5 | 89,1 | 0 | 2,5 | 281 | 0 | 988 |
| 74 | Tamelaike INIA | 04-05-2026 18:15 | 4,5 | 89,1 | 0 | 3,6 | 281 | 0 | 987 |
| 73 | Tamelaike INIA | 04-05-2026 18:00 | 4,5 | 91,9 | 0 | 3,3 | 259 | 1 | 989 |
| 72 | Tamelaike INIA | 04-05-2026 17:45 | 4,9 | 90,7 | 0 | 4,2 | 275 | 6 | 987 |
| 71 | Tamelaike INIA | 04-05-2026 17:30 | 5,2 | 88,8 | 0 | 5,4 | 274 | 13 | 987 |
| 70 | Tamelaike INIA | 04-05-2026 17:15 | 5,4 | 86,7 | 0 | 5,7 | 282 | 19 | 987 |
| 69 | Tamelaike INIA | 04-05-2026 17:00 | 5,7 | 84,8 | 0 | 5,8 | 275 | 35 | 988 |
| 68 | Tamelaike INIA | 04-05-2026 16:45 | 5,9 | 82,1 | 0 | 6,4 | 266 | 50 | 1005 |
| 67 | Tamelaike INIA | 04-05-2026 16:30 | 6 | 81,9 | 0 | 5,5 | 266 | 57 | 987 |
| 66 | Tamelaike INIA | 04-05-2026 16:15 | 6 | 85,3 | 0 | 5,3 | 274 | 65 | 990 |
| 65 | Tamelaike INIA | 04-05-2026 16:00 | 6,1 | 84 | 0 | 5,8 | 278 | 79 | 988 |
| 64 | Tamelaike INIA | 04-05-2026 15:45 | 6 | 84,4 | 0 | 4,9 | 284 | 86 | 986 |
| 63 | Tamelaike INIA | 04-05-2026 15:30 | 6,1 | 87 | 0 | 5,2 | 284 | 119 | 986 |
| 62 | Tamelaike INIA | 04-05-2026 15:15 | 6,2 | 84,8 | 0 | 6 | 281 | 143 | 986 |
| 61 | Tamelaike INIA | 04-05-2026 15:00 | 6,4 | 83,9 | 0 | 6,7 | 283 | 163 | 986 |
| 60 | Tamelaike INIA | 04-05-2026 14:45 | 5,8 | 82,2 | 0 | 5,2 | 284 | 185 | 1004 |
| 59 | Tamelaike INIA | 04-05-2026 14:30 | 5,6 | 92 | 0 | 3,3 | 294 | 231 | 986 |
| 58 | Tamelaike INIA | 04-05-2026 14:15 | 5,2 | 93 | 0,1 | 3,4 | 299 | 142 | 986 |
| 57 | Tamelaike INIA | 04-05-2026 14:00 | 5,2 | 87,7 | 0,3 | 6,1 | 267 | 60 | 986 |
| 56 | Tamelaike INIA | 04-05-2026 13:45 | 5,5 | 85,8 | 0,1 | 6,8 | 261 | 55 | 1005 |
| 55 | Tamelaike INIA | 04-05-2026 13:30 | 5,8 | 91,2 | 0,7 | 4,7 | 253 | 67 | 986 |
| 54 | Tamelaike INIA | 04-05-2026 13:15 | 6,2 | 87,3 | 0,1 | 3,6 | 282 | 125 | 1004 |
| 53 | Tamelaike INIA | 04-05-2026 13:00 | 6,3 | 86,5 | 0 | 2,7 | 290 | 207 | 1004 |
| 52 | Tamelaike INIA | 04-05-2026 12:45 | 5,8 | 89,3 | 0 | 1,8 | 286 | 230 | 986 |
| 51 | Tamelaike INIA | 04-05-2026 12:30 | 5,4 | 90,2 | 0 | 2,6 | 269 | 244 | 1004 |
| 50 | Tamelaike INIA | 04-05-2026 12:15 | 5,2 | 94,1 | 0,2 | 3,3 | 256 | 197 | 985 |
| 49 | Tamelaike INIA | 04-05-2026 12:00 | 5,1 | 92,9 | 0,3 | 3,5 | 253 | 102 | 985 |
| 48 | Tamelaike INIA | 04-05-2026 11:45 | 5,2 | 92,1 | 0,3 | 4 | 250 | 169 | 985 |
| 47 | Tamelaike INIA | 04-05-2026 11:30 | 5,3 | 91,7 | 0,1 | 3,5 | 269 | 165 | 986 |
| 46 | Tamelaike INIA | 04-05-2026 11:15 | 5,3 | 90 | 0 | 3,2 | 276 | 171 | 985 |
| 45 | Tamelaike INIA | 04-05-2026 11:00 | 5 | 94,6 | 0,1 | 3,2 | 271 | 182 | 986 |
| 44 | Tamelaike INIA | 04-05-2026 10:45 | 5,1 | 93,2 | 0,1 | 3,2 | 273 | 114 | 1005 |
| 43 | Tamelaike INIA | 04-05-2026 10:30 | 5,2 | 90,7 | 0 | 3,8 | 264 | 124 | 987 |
| 42 | Tamelaike INIA | 04-05-2026 10:15 | 5 | 90,9 | 0,4 | 2,2 | 252 | 69 | 987 |
| 41 | Tamelaike INIA | 04-05-2026 10:00 | 5,1 | 90,5 | 0,5 | 2,2 | 260 | 16 | 987 |
| 40 | Tamelaike INIA | 04-05-2026 09:45 | 5,4 | 89,1 | 0 | 2,4 | 273 | 40 | 987 |
| 39 | Tamelaike INIA | 04-05-2026 09:30 | 5,3 | 85,7 | 0 | 2,5 | 268 | 121 | 988 |
| 38 | Tamelaike INIA | 04-05-2026 09:15 | 5,1 | 90,6 | 0 | 3 | 268 | 30 | 987 |
| 37 | Tamelaike INIA | 04-05-2026 09:00 | 5,2 | 88,2 | 0 | 3,5 | 277 | 38 | 1006 |
| 36 | Tamelaike INIA | 04-05-2026 08:45 | 5,1 | 85,9 | 0 | 4,1 | 274 | 17 | 987 |
| 35 | Tamelaike INIA | 04-05-2026 08:30 | 5 | 85,3 | 0 | 3,9 | 281 | 42 | 987 |
| 34 | Tamelaike INIA | 04-05-2026 08:15 | 5,1 | 85 | 0 | 4,3 | 278 | 30 | 987 |
| 33 | Tamelaike INIA | 04-05-2026 08:00 | 5,1 | 81 | 0 | 4 | 286 | 5 | 987 |
| 32 | Tamelaike INIA | 04-05-2026 07:45 | 5,2 | 79,8 | 0 | 4,4 | 283 | 0 | 987 |
| 31 | Tamelaike INIA | 04-05-2026 07:30 | 5,6 | 81,5 | 0 | 5,8 | 277 | 0 | 1006 |
| 30 | Tamelaike INIA | 04-05-2026 07:15 | 5,6 | 79,4 | 0 | 6,8 | 282 | 0 | 987 |
| 29 | Tamelaike INIA | 04-05-2026 07:00 | 5,5 | 80,6 | 0 | 6,4 | 283 | 0 | 1006 |
| 28 | Tamelaike INIA | 04-05-2026 06:45 | 5,3 | 83,8 | 0 | 4,9 | 279 | 0 | 989 |
| 27 | Tamelaike INIA | 04-05-2026 06:30 | 5,7 | 85,8 | 0,1 | 8,6 | 277 | 0 | 987 |
| 26 | Tamelaike INIA | 04-05-2026 06:15 | 6,1 | 80,5 | 0 | 8,8 | 272 | 0 | 1006 |
| 25 | Tamelaike INIA | 04-05-2026 06:00 | 6,4 | 79,3 | 0 | 8,8 | 263 | 0 | 987 |
| 24 | Tamelaike INIA | 04-05-2026 05:45 | 6,1 | 76,4 | 0 | 6,8 | 275 | 0 | 1005 |
| 23 | Tamelaike INIA | 04-05-2026 05:30 | 6,3 | 79,5 | 0 | 7,1 | 272 | 0 | 986 |
| 22 | Tamelaike INIA | 04-05-2026 05:15 | 6,4 | 75,1 | 0 | 8,8 | 269 | 0 | 986 |
| 21 | Tamelaike INIA | 04-05-2026 05:00 | 6,6 | 75,2 | 0 | 9,2 | 271 | 0 | 986 |
| 20 | Tamelaike INIA | 04-05-2026 04:45 | 6,6 | 73,8 | 0 | 9,9 | 266 | 0 | 1004 |
| 19 | Tamelaike INIA | 04-05-2026 04:30 | 6,5 | 72,4 | 0 | 10,6 | 267 | 0 | 987 |
| 18 | Tamelaike INIA | 04-05-2026 04:15 | 6,4 | 76,5 | 0 | 8,9 | 266 | 0 | 986 |
| 17 | Tamelaike INIA | 04-05-2026 04:00 | 6,5 | 76,1 | 0 | 10,4 | 269 | 0 | 985 |
| 16 | Tamelaike INIA | 04-05-2026 03:45 | 6,5 | 75,5 | 0 | 10,8 | 270 | 0 | 985 |
| 15 | Tamelaike INIA | 04-05-2026 03:30 | 6,2 | 82,5 | 0 | 9,7 | 272 | 0 | 1004 |
| 14 | Tamelaike INIA | 04-05-2026 03:15 | 6,3 | 82,2 | 0 | 10,2 | 275 | 0 | 986 |
| 13 | Tamelaike INIA | 04-05-2026 03:00 | 6,4 | 82,7 | 0 | 10,5 | 264 | 0 | 984 |
| 12 | Tamelaike INIA | 04-05-2026 02:45 | 6,5 | 79,2 | 0 | 10,6 | 260 | 0 | 1004 |
| 11 | Tamelaike INIA | 04-05-2026 02:30 | 6,4 | 82,1 | 0 | 8,5 | 263 | 0 | 986 |
| 10 | Tamelaike INIA | 04-05-2026 02:15 | 6,4 | 82,8 | 0 | 8,6 | 260 | 0 | 987 |
| 9 | Tamelaike INIA | 04-05-2026 02:00 | 6,4 | 86 | 0 | 8,6 | 260 | 0 | 985 |
| 8 | Tamelaike INIA | 04-05-2026 01:45 | 6,4 | 86 | 0 | 8,7 | 262 | 0 | 1004 |
| 7 | Tamelaike INIA | 04-05-2026 01:30 | 6,5 | 84,2 | 0 | 8 | 267 | 0 | 1004 |
| 6 | Tamelaike INIA | 04-05-2026 01:15 | 6,6 | 85,3 | 0,1 | 8,4 | 265 | 0 | 985 |
| 5 | Tamelaike INIA | 04-05-2026 01:00 | 6,4 | 86,5 | 0 | 7,7 | 267 | 0 | 986 |
| 4 | Tamelaike INIA | 04-05-2026 00:45 | 6,4 | 87,5 | 0 | 6,5 | 267 | 0 | 984 |
| 3 | Tamelaike INIA | 04-05-2026 00:30 | 6,4 | 87,5 | 0,1 | 7,4 | 265 | 0 | 1003 |
| 2 | Tamelaike INIA | 04-05-2026 00:15 | 6,3 | 88,4 | 0 | 7,1 | 270 | 0 | 985 |
| 1 | Tamelaike INIA | 04-05-2026 00:00 | 6,5 | 89,2 | 0,1 | 7,4 | 271 | 0 | 986 |